DW5450 Weather Reports


Display with metric or nautical units.
time (UTC)temp
F
wind
direction
speed
MPH
gust
MPH
rain 1hr
in
rain 24hr
in
rain mn
in
humidity
%
barometer
mb
20260902143056 79 323 1.0 5.0 0.00 0.00 0.00 81 1012.8
20260902141555 78 320 1.0 5.0 0.00 0.00 0.00 83 1012.8
20260902140054 78 315 0.0 5.0 0.00 0.00 0.00 83 1012.7
20260902134558 77 355 0.0 3.0 0.00 0.00 0.00 84 1012.6
20260902133105 77 9 0.0 4.0 0.00 0.00 0.00 84 1012.4
20260902131601 76 342 0.0 3.0 0.00 0.00 0.00 85 1012.2
20260902130052 76 355 0.0 3.0 0.00 0.00 0.00 85 1011.9
20260902124552 76 355 0.0 3.0 0.00 0.00 0.00 85 1011.8
20260902123106 77 10 0.0 2.0 0.00 0.00 0.00 85 1011.8
20260902121557 77 360 0.0 3.0 0.00 0.00 0.00 85 1011.9
20260902120103 77 355 0.0 1.0 0.00 0.00 0.00 86 1011.8
20260902114546 77 355 0.0 2.0 0.00 0.00 0.00 85 1011.8
20260902113046 78 342 0.0 3.0 0.00 0.00 0.00 86 1011.8
20260902111554 78 326 0.0 2.0 0.00 0.00 0.00 86 1012.0
20260902110044 78 314 0.0 3.0 0.00 0.00 0.00 86 1011.9
20260902104540 79 333 0.0 2.0 0.00 0.00 0.00 86 1011.9
20260902103037 79 348 0.0 3.0 0.00 0.00 0.00 86 1012.1
20260902101537 79 349 0.0 3.0 0.00 0.00 0.00 85 1012.2
20260902100036 80 336 0.0 3.0 0.00 0.00 0.00 85 1012.3
20260902094531 80 342 0.0 3.0 0.00 0.00 0.00 85 1012.5
20260902093028 81 198 0.0 2.0 0.00 0.00 0.00 85 1012.6
20260902091525 82 198 0.0 3.0 0.00 0.00 0.00 84 1012.7
20260902090023 83 198 0.0 0.0 0.00 0.00 0.00 83 1012.7
20260902084521 83 198 0.0 1.0 0.00 0.00 0.00 83 1012.7
20260902083019 83 198 0.0 2.0 0.00 0.00 0.00 83 1012.9
20260902081517 83 198 0.0 2.0 0.00 0.00 0.00 82 1013.0
20260902080019 84 196 0.0 1.0 0.00 0.00 0.00 82 1013.2
20260902074515 84 196 0.0 2.0 0.00 0.00 0.00 82 1013.2
20260902073013 84 192 0.0 6.0 0.00 0.00 0.00 82 1013.3
20260902071518 84 206 0.0 2.0 0.00 0.00 0.00 82 1013.2
20260902070011 84 185 0.0 2.0 0.00 0.00 0.00 82 1013.3
20260902064511 84 183 0.0 3.0 0.00 0.00 0.00 82 1013.4
20260902063012 84 181 0.0 3.0 0.00 0.00 0.00 81 1013.5
20260902061510 84 206 0.0 2.0 0.00 0.00 0.00 80 1013.4
20260902060009 84 206 0.0 2.0 0.00 0.00 0.00 80 1013.4
20260902054512 84 206 0.0 0.0 0.00 0.00 0.00 79 1013.4
20260902053010 84 206 0.0 2.0 0.00 0.00 0.00 79 1013.5
20260902051508 85 204 0.0 0.0 0.00 0.00 0.00 79 1013.7
20260902050023 85 204 0.0 1.0 0.00 0.00 0.00 78 1013.7
20260902044507 85 204 0.0 2.0 0.00 0.00 0.00 78 1013.7
20260902043018 85 204 0.0 1.0 0.00 0.00 0.00 77 1013.5
20260902041505 85 202 0.0 1.0 0.00 0.00 0.00 77 1013.4
20260902040002 86 203 0.0 4.0 0.00 0.00 0.00 77 1013.3
20260902034501 86 194 0.0 5.0 0.00 0.00 0.00 77 1013.0
20260902033100 86 180 2.0 5.0 0.00 0.00 0.00 77 1012.8
20260902031612 86 172 2.0 6.0 0.00 0.00 0.00 76 1012.4
20260902030059 86 174 1.0 5.0 0.00 0.00 0.00 76 1012.2
20260902024605 86 191 1.0 5.0 0.00 0.00 0.00 76 1012.0
20260902023104 86 175 2.0 9.0 0.00 0.00 0.00 76 1011.6
20260902021611 86 181 4.0 7.0 0.00 0.00 0.00 76 1011.4
20260902020112 87 159 2.0 11.0 0.00 0.00 0.00 75 1011.2
20260902014557 87 210 3.0 7.0 0.00 0.00 0.00 75 1011.3
20260902013057 87 190 2.0 7.0 0.00 0.00 0.00 74 1011.2
20260902011556 87 193 3.0 7.0 0.00 0.00 0.00 73 1011.1
20260902010055 88 130 2.0 8.0 0.00 0.00 0.00 71 1010.9
20260902004555 88 109 2.0 7.0 0.00 0.00 0.00 70 1010.8
20260902003055 88 189 2.0 8.0 0.00 0.00 0.00 67 1010.6
20260902001556 89 159 3.0 9.0 0.00 0.00 0.00 67 1010.5
20260902000054 90 164 5.0 9.0 0.00 0.00 0.00 66 1010.3
20260901234556 90 113 3.0 11.0 0.00 0.00 0.00 67 1010.3
20260901233052 90 170 3.0 10.0 0.00 0.00 0.00 67 1010.2
20260901231555 90 162 2.0 10.0 0.00 0.00 0.00 67 1010.0
20260901230103 90 148 3.0 12.0 0.00 0.00 0.00 68 1010.0
20260901224552 90 173 4.0 9.0 0.00 0.00 0.00 68 1009.9
20260901223102 90 101 3.0 11.0 0.00 0.00 0.00 68 1010.0
20260901221549 90 130 3.0 11.0 0.00 0.00 0.00 67 1010.2
20260901220106 90 109 4.0 15.0 0.00 0.00 0.00 70 1010.3
20260901214547 91 138 3.0 11.0 0.00 0.07 0.00 70 1010.3
20260901213049 90 115 5.0 11.0 0.00 0.07 0.00 71 1010.4
20260901211543 91 164 3.0 11.0 0.00 0.07 0.00 72 1010.6
20260901210040 90 127 3.0 11.0 0.00 0.07 0.00 69 1010.9
20260901204541 90 204 5.0 12.0 0.00 0.33 0.00 72 1011.0